Regional Weather Roundup
Issued by NWS

Home | Current Version | Previous Version | Graphics & Text | Print | Product List | Glossary On
Versions: 1 2 3 4 5 6 7 8 9 10 11 12 13 14 15 16 17 18 19 20 21 22 23 24 25 26 27 28 29 30 31 32 33 34 35 36 37 38 39 40 41 42 43 44 45 46 47 48 49 50
000
ASUS43 KLMK 070410
RWRKY
KENTUCKY REGIONAL WEATHER ROUNDUP
NATIONAL WEATHER SERVICE LOUISVILLE KY
1200 AM EDT TUE JUL 07 2015

NOTE "FAIR" INDICATES FEW OR NO CLOUDS BELOW 12,000 FEET
WITH NO SIGNIFICANT WEATHER AND/OR OBSTRUCTIONS TO VISIBILITY.

KYZ001>023-026-027-061>063-070>075-070500-
WESTERN AND SOUTH CENTRAL KENTUCKY

CITY           SKY/WX    TMP DP  RH WIND       PRES   REMARKS
PADUCAH        MOCLDY    79  72  79 S6        29.99R
HENDERSON      PTCLDY    75  72  88 S6        29.98S
OWENSBORO      CLEAR     77  74  90 S7        30.01S
HOPKINSVILLE   CLEAR     78  74  88 SW9       30.03F
BOWLING GREEN  PTCLDY    78  71  79 S6        30.05S
GLASGOW        CLEAR     74  69  83 CALM      30.06F
$$

KYZ024-025-028>034-038-045-046-053-070500-
NORTH CENTRAL KENTUCKY

CITY           SKY/WX    TMP DP  RH WIND       PRES   REMARKS
LOUISVILLE/SDF MOCLDY    80  70  71 S7        30.01F
LOUISVILLE/LOU PTCLDY    77  70  79 S5        30.02F
FORT KNOX      PTCLDY    74  70  88 SW3       30.02F
$$

KYZ035>037-039>044-047>052-055>060-089>105-070500-
NORTHEAST KENTUCKY

CITY           SKY/WX    TMP DP  RH WIND       PRES   REMARKS
LEXINGTON      CLEAR     73  68  84 S6        30.07R
COVINGTON      MOCLDY    74  69  85 S7        30.03S
FRANKFORT      CLEAR     74  68  81 S5        30.05S
$$

KYZ054-064>069-076>088-106>120-070500-
SOUTHEAST KENTUCKY

CITY           SKY/WX    TMP DP  RH WIND       PRES   REMARKS
JACKSON        CLEAR     71  67  87 CALM      30.11R
LONDON         CLEAR     70  66  87 CALM      30.11R FOG
SOMERSET       CLEAR     68  68 100 CALM      30.11R FOG
MIDDLESBORO    PTCLDY    69  68  98 CALM      30.13R
MONTICELLO     CLEAR     68  68 100 CALM      30.13R FOG
$$




USA.gov is the U.S. government's official web portal to all federal, state and local government web resources and services.